EW1675 Weather Reports


time (UTC)temp
F
wind
direction
speed
knots
gust
knots
rain 1hr
in
rain 24hr
in
rain mn
in
humidity
%
barometer
mb
20260506015023 74 156 0.9 6.1 0.00 0.00 0.00 45 1010.8
20260506014023 74 153 1.7 4.3 0.00 0.00 0.00 45 1010.8
20260506013023 74 157 1.7 7.8 0.00 0.00 0.00 44 1010.6
20260506012022 74 153 1.7 7.0 0.00 0.00 0.00 44 1010.5
20260506011001 74 156 1.7 5.2 0.00 0.00 0.00 43 1010.4
20260506010001 75 162 1.7 6.1 0.00 0.00 0.00 42 1010.4
20260506005001 75 160 0.9 4.3 0.00 0.00 0.00 41 1010.3
20260506004002 76 156 0.9 4.3 0.00 0.00 0.00 41 1010.1
20260506003105 76 144 0.9 4.3 0.00 0.00 0.00 39 1010.1
20260506002002 77 159 1.7 7.0 0.00 0.00 0.00 38 1009.9
20260506001002 77 163 0.9 5.2 0.00 0.00 0.00 37 1009.8
20260506000002 78 162 1.7 6.1 0.00 0.00 0.00 36 1009.8
20260505235044 78 159 1.7 5.2 0.00 0.00 0.00 35 1009.7
20260505234023 79 165 1.7 10.4 0.00 0.00 0.00 35 1009.6
20260505233002 79 160 3.5 9.6 0.00 0.00 0.00 34 1009.7
20260505232044 80 163 2.6 10.4 0.00 0.00 0.00 34 1009.7
20260505231001 80 159 1.7 7.8 0.00 0.00 0.00 35 1009.6
20260505230002 80 167 2.6 7.8 0.00 0.00 0.00 34 1009.7
20260505225001 80 172 1.7 7.0 0.00 0.00 0.00 34 1009.6
20260505224002 81 158 2.6 7.8 0.00 0.00 0.00 34 1009.6
20260505223023 81 158 2.6 11.3 0.00 0.00 0.00 33 1009.6
20260505222002 81 154 2.6 10.4 0.00 0.00 0.00 33 1009.7
20260505221024 81 169 3.5 10.4 0.00 0.00 0.00 32 1009.7
20260505220023 81 161 3.5 10.4 0.00 0.00 0.00 32 1009.6
20260505215023 82 174 3.5 13.0 0.00 0.00 0.00 32 1009.6
20260505214002 82 160 4.3 14.8 0.00 0.00 0.00 31 1009.5
20260505213044 82 162 3.5 13.0 0.00 0.00 0.00 32 1009.4
20260505212002 82 169 3.5 13.0 0.00 0.00 0.00 33 1009.3
20260505211023 82 157 3.5 12.2 0.00 0.00 0.00 34 1009.5
20260505210002 83 162 3.5 11.3 0.00 0.00 0.00 32 1009.5
20260505205023 83 173 2.6 11.3 0.00 0.00 0.00 32 1009.5
20260505204002 83 157 3.5 8.7 0.00 0.00 0.00 33 1009.4
20260505203002 83 159 2.6 9.6 0.00 0.00 0.00 33 1009.4
20260505202002 84 154 3.5 12.2 0.00 0.00 0.00 33 1009.4
20260505201002 84 164 3.5 16.5 0.00 0.00 0.00 33 1009.5
20260505200002 85 164 3.5 12.2 0.00 0.00 0.00 31 1009.3
20260505195002 85 159 3.5 14.8 0.00 0.00 0.00 32 1009.5
20260505194024 85 176 4.3 13.0 0.00 0.00 0.00 31 1009.7
20260505193105 85 166 5.2 14.8 0.00 0.00 0.00 31 1009.8
20260505192002 85 174 2.6 11.3 0.00 0.00 0.00 34 1009.9
20260505191002 85 172 4.3 10.4 0.00 0.00 0.00 30 1010.2
20260505190023 86 165 3.5 11.3 0.00 0.00 0.00 30 1010.2
20260505185023 86 169 2.6 8.7 0.00 0.00 0.00 33 1010.3
20260505184045 86 167 3.5 10.4 0.00 0.00 0.00 34 1010.5
20260505183105 85 161 4.3 13.9 0.00 0.00 0.00 33 1010.6
20260505182024 85 159 3.5 9.6 0.00 0.00 0.00 32 1010.6
20260505181002 86 159 3.5 8.7 0.00 0.00 0.00 33 1010.8
20260505180023 85 164 2.6 7.8 0.00 0.00 0.00 34 1010.9
20260505175002 85 147 3.5 9.6 0.00 0.00 0.00 33 1011.1
20260505174002 85 169 2.6 10.4 0.00 0.00 0.00 34 1011.0
20260505173023 85 161 3.5 13.0 0.00 0.00 0.00 35 1011.1
20260505172002 84 154 3.5 9.6 0.00 0.00 0.00 37 1011.1
20260505171023 84 167 2.6 8.7 0.00 0.00 0.00 36 1011.2
20260505170002 84 167 2.6 8.7 0.00 0.00 0.00 39 1011.3
20260505165023 83 178 2.6 8.7 0.00 0.00 0.00 36 1011.6
20260505164002 83 158 2.6 7.8 0.00 0.00 0.00 39 1011.7
20260505163002 83 156 2.6 9.6 0.00 0.00 0.00 39 1011.9
20260505162023 83 151 1.7 8.7 0.00 0.00 0.00 38 1012.0
20260505161002 83 174 1.7 7.0 0.00 0.00 0.00 39 1012.2
20260505153023 80 161 1.7 7.0 0.00 0.00 0.00 43 1012.5
20260505152023 80 154 2.6 6.1 0.00 0.00 0.00 45 1012.4
20260505151002 80 162 1.7 6.1 0.00 0.00 0.00 45 1012.4
20260505125003 66 163 0.9 5.2 0.00 0.00 0.00 61 1012.8
20260505124003 65 155 0.9 3.5 0.00 0.00 0.00 61 1012.8
20260505123024 64 156 0.9 6.1 0.00 0.00 0.00 62 1012.9
20260505122024 62 155 0.9 6.1 0.00 0.00 0.00 64 1012.8
20260505121045 62 172 0.9 4.3 0.00 0.00 0.00 65 1012.8
20260505120003 61 270 0.9 4.3 0.00 0.00 0.00 65 1013.0
20260505115045 61 132 0.9 4.3 0.00 0.00 0.00 66 1012.8
20260505114002 60 166 0.0 3.5 0.00 0.00 0.00 66 1012.5
20260505113003 60 165 0.0 4.3 0.00 0.00 0.00 66 1012.4
20260505112003 60 174 0.0 1.7 0.00 0.00 0.00 66 1012.3
20260505111107 60 120 0.0 1.7 0.00 0.00 0.00 66 1012.4
20260505102003 59 176 0.9 4.3 0.00 0.00 0.00 67 1011.8
20260505101003 59 171 0.9 3.5 0.00 0.00 0.00 66 1011.8
20260505100106 59 160 0.9 2.6 0.00 0.00 0.00 67 1011.8
20260505095003 58 173 0.9 4.3 0.00 0.00 0.00 67 1011.8
20260505094021 58 179 0.9 4.3 0.00 0.00 0.00 68 1011.8
20260505092959 58 161 0.0 3.5 0.00 0.00 0.00 68 1011.7
20260505092022 58 180 0.0 2.6 0.00 0.00 0.00 69 1011.6
20260505091020 58 146 0.0 3.5 0.00 0.00 0.00 69 1011.6
20260505090021 58 157 0.0 2.6 0.00 0.00 0.00 70 1011.5
20260505085021 58 155 0.0 0.9 0.00 0.00 0.00 70 1011.4
20260505083959 58 0 0.0 0.0 0.00 0.00 0.00 69 1011.5
20260505083021 58 155 0.0 1.7 0.00 0.00 0.00 70 1011.5
20260505081959 58 156 0.9 4.3 0.00 0.00 0.00 70 1011.6
20260505080959 59 157 0.9 2.6 0.00 0.00 0.00 70 1011.5
20260505080021 59 157 0.0 0.9 0.00 0.00 0.00 70 1011.3
20260505074959 59 158 0.0 2.6 0.00 0.00 0.00 69 1011.2
20260505074042 59 163 0.0 1.7 0.00 0.00 0.00 70 1011.3
20260505073020 59 163 0.9 3.5 0.00 0.00 0.00 70 1011.3
20260505072021 59 135 0.0 2.6 0.00 0.00 0.00 70 1011.2
20260505071000 59 116 0.0 0.9 0.00 0.00 0.00 70 1011.1
20260505065959 59 168 0.0 1.7 0.00 0.00 0.00 71 1011.1
20260505064959 59 148 0.0 3.5 0.00 0.00 0.00 71 1011.1
20260505064000 58 120 0.0 1.7 0.00 0.00 0.00 72 1011.1
20260505063002 58 122 0.0 1.7 0.00 0.00 0.00 73 1011.1
20260505062000 58 121 0.0 0.9 0.00 0.00 0.00 73 1011.0
20260505061000 58 0 0.0 0.0 0.00 0.00 0.00 72 1011.1
20260505060001 59 0 0.0 0.0 0.00 0.00 0.00 72 1011.2
20260505055000 59 0 0.0 0.0 0.00 0.00 0.00 72 1011.1
20260505054000 59 138 0.0 1.7 0.00 0.00 0.00 72 1011.1
20260505053021 59 0 0.0 0.0 0.00 0.00 0.00 72 1011.1
20260505052042 60 216 0.0 0.9 0.00 0.00 0.00 71 1011.2
20260505051000 60 0 0.0 0.0 0.00 0.00 0.00 69 1011.2
20260505041000 64 0 0.0 0.0 0.00 0.00 0.00 62 1011.2
20260505040000 64 215 0.0 0.9 0.00 0.00 0.00 62 1011.4
20260505035021 65 215 0.0 0.9 0.00 0.00 0.00 61 1011.4
20260505034000 65 0 0.0 0.0 0.00 0.00 0.00 60 1011.2
20260505033000 66 215 0.0 0.9 0.00 0.00 0.00 59 1011.3
20260505032000 66 211 0.0 2.6 0.00 0.00 0.00 58 1011.2
20260505031001 66 166 0.9 2.6 0.00 0.00 0.00 57 1011.1
20260505030000 66 187 0.0 1.7 0.00 0.00 0.00 57 1011.1
20260505025000 66 163 0.0 2.6 0.00 0.00 0.00 56 1011.1
20260505024000 67 178 0.0 2.6 0.00 0.00 0.00 55 1011.0
20260505023000 67 157 0.0 1.7 0.00 0.00 0.00 54 1011.0
20260505022000 68 0 0.0 0.0 0.00 0.00 0.00 52 1011.1
20260505021021 68 151 0.0 0.9 0.00 0.00 0.00 52 1011.0
20260505020000 68 154 0.0 1.7 0.00 0.00 0.00 52 1011.0